User: anonymous   Login
Location: Hurecourt
(47.9030°N, 6.0653°E)
Time: 01:02:45
(UTC+00:00)
Language:

Cosmos 1733 Rocket - Orbit

View from above orbital plane
View from above orbital plane
View from above satellite
View from above satellite

Ground track
Ground track

The orbit data is extracted from the following two-line orbital elements,

1 16612U 86018B   20272.45818889  .00000105  00000-0  95456-5 0  9993
2 16612  82.5148 251.1517 0018397 150.1152 325.3850 14.84270078769347
Epoch (UTC): 28 September 2020 10:59:47
Eccentricity: 0.0018397
inclination: 82.5148°
perigee height: 603 km
apogee height: 629 km
right ascension of ascending node: 251.1517°
argument of perigee: 150.1152°
revolutions per day: 14.84270078
mean anomaly at epoch: 325.3850°
orbit number at epoch: 76934

The dashed part of the orbit path shows where the satellite is in the earth's shadow,  

DLR